MMUN

Cancún International Airport

Airport
ICAO code
MMUN
IATA Code
CUN
Summary
ICAO Region
CARSAM
ICAO Territory
Location

Cancun, Quintana Roo

Serving
Cancun
Elevation
22 ft
Coordinates
21° 2' 12" N , 86° 52' 37" W
KCC
Airport WX
Tropical Revolving Storm
Metar
Observation
MMUN 270347Z 07005KT 7SM SCT015 24/22 A3012 RMK 8/100 HZY AC
Station
Cancun International Airport
Date/Time
2023-01-27 03:47:00
Wind direction
70°
Wind speed
05 kts
Lowest cloud amount
scattered clouds
Temperature
24°C
Dew point
22°C
Humidity
88%
Weather condition
n/a

International airport 6 nm south of Cancun, Mexico.

Climatology

Tropical savannah climate (Köppen climate classification Aw)

Runways

Designator Length Width Surface Rops
12L/30R 2800 45 ASP Yes/Yes
12R/30L 3500 60 ASP Yes/Yes

Airport map

Aerial View

SKYbrary Partners:

Safety knowledge contributed by: